Location: Unspecified
(0.0000°N, 0.0000°E)
Time: 01:51:24
(UTC+00:00)

Courier 1B Rocket - Visible Passes

Search period start: 19 February 2018 00:00
Search period end: 01 March 2018 00:00
Orbit: 920 x 1202 km, 28.2° (Epoch: 18 February)

Date Brightness Start Highest point End Pass type
(mag) Time Alt. Az. Time Alt. Az. Time Alt. Az.
19 Feb 7.3 04:49:48 10° SSW 04:53:40 16° SSE 04:57:28 10° ESE visible
19 Feb 6.0 20:02:59 10° WNW 20:10:31 51° SSW 20:14:22 29° SSE visible
19 Feb 7.9 22:00:12 10° WSW 22:00:47 11° WSW 22:00:47 11° WSW visible
20 Feb 7.5 03:50:21 10° S 03:52:15 11° SSE 03:54:08 10° SE visible
20 Feb 6.3 05:40:33 10° SW 05:46:26 38° SSE 05:52:10 10° E visible
20 Feb 5.6 19:01:25 10° WNW 19:09:10 74° SSW 19:17:00 10° SE visible
20 Feb 7.0 20:57:14 10° WSW 21:03:19 24° SSW 21:04:16 24° SSW visible
21 Feb 6.8 04:40:01 10° SSW 04:45:19 25° SSE 04:50:25 10° E visible
21 Feb 6.7 19:54:54 10° W 20:01:50 35° SSW 20:07:41 14° SSE visible
21 Feb 7.9 21:54:01 10° SW 21:54:07 10° SW 21:54:07 10° SW visible
22 Feb 7.1 03:42:17 16° S 03:44:01 18° SSE 03:48:12 10° ESE visible
22 Feb 5.4 05:31:29 10° SW 05:37:54 61° SSE 05:44:04 10° ENE visible
22 Feb 6.3 18:53:02 10° WNW 19:00:25 50° SSW 19:07:58 10° SE visible
22 Feb 7.4 20:50:08 10° WSW 20:54:53 17° SSW 20:57:26 15° S visible
23 Feb 6.0 04:32:13 17° SSW 04:36:50 40° SSE 04:42:43 10° E visible
23 Feb 7.2 19:47:16 10° WSW 19:53:16 24° SSW 19:59:19 10° SSE visible
24 Feb 6.6 03:35:46 27° SSE 03:35:46 27° SSE 03:41:03 10° E visible
24 Feb 4.9 05:22:41 10° WSW 05:29:18 84° NNW 05:35:36 10° ENE visible
24 Feb 6.9 18:45:01 10° W 18:51:45 34° SSW 18:58:41 10° SE visible
24 Feb 7.7 20:44:00 10° SW 20:46:37 12° SSW 20:49:15 10° S visible
25 Feb 5.3 04:25:43 38° SW 04:28:17 64° SSE 04:34:36 10° ENE visible
25 Feb 7.6 19:40:15 10° WSW 19:44:52 17° SSW 19:49:32 10° SSE visible
26 Feb 6.4 03:29:14 34° ESE 03:29:14 34° ESE 03:33:18 10° E visible
26 Feb 5.2 05:15:39 17° WSW 05:20:41 53° NNW 05:26:50 10° NE visible
26 Feb 7.4 18:37:29 10° WSW 18:43:14 23° SSW 18:49:09 10° SSE visible
27 Feb 4.8 04:19:07 75° W 04:19:39 82° NNW 04:26:08 10° ENE visible
27 Feb 7.7 19:34:17 10° SW 19:36:38 11° SSW 19:39:01 10° S visible
28 Feb 6.8 03:22:29 26° ENE 03:22:29 26° ENE 03:25:09 10° ENE visible
28 Feb 5.8 05:08:54 22° WNW 05:12:05 34° NNW 05:17:48 10° NE visible
28 Feb 7.6 18:30:34 10° WSW 18:34:52 16° SSW 18:39:16 10° SSE visible
